TimeCST,TemperatureF,Dew PointF,Humidity,Sea Level PressureIn,VisibilityMPH,Wind Direction,Wind SpeedMPH,Gust SpeedMPH,PrecipitationIn,Events,Conditions,WindDirDegrees,DateUTC
12:54 AM,39.0,28.9,67,29.89,10.0,WNW,4.6,-,N/A,,Clear,300,2012-03-01 06:54:00
1:54 AM,37.9,28.0,68,29.89,10.0,NW,4.6,-,N/A,,Clear,310,2012-03-01 07:54:00
2:54 AM,33.1,26.1,75,29.90,10.0,Calm,Calm,-,N/A,,Clear,0,2012-03-01 08:54:00
3:54 AM,34.0,28.0,79,29.89,10.0,Calm,Calm,-,N/A,,Clear,0,2012-03-01 09:54:00
4:54 AM,32.0,27.0,82,29.89,10.0,Calm,Calm,-,N/A,,Clear,0,2012-03-01 10:54:00
5:54 AM,32.0,27.0,82,29.89,10.0,Calm,Calm,-,N/A,,Clear,0,2012-03-01 11:54:00
6:54 AM,32.0,27.0,82,29.89,10.0,South,5.8,-,N/A,,Clear,180,2012-03-01 12:54:00
7:54 AM,36.0,30.9,82,29.90,10.0,South,3.5,-,N/A,,Clear,180,2012-03-01 13:54:00
8:54 AM,43.0,30.9,62,29.90,10.0,SSE,4.6,-,N/A,,Clear,150,2012-03-01 14:54:00
9:54 AM,50.0,32.0,50,29.87,10.0,SSE,10.4,-,N/A,,Clear,160,2012-03-01 15:54:00
10:54 AM,55.0,30.0,38,29.83,10.0,SE,6.9,-,N/A,,Clear,130,2012-03-01 16:54:00
11:54 AM,59.0,28.9,32,29.78,10.0,SE,12.7,-,N/A,,Clear,130,2012-03-01 17:54:00
12:54 PM,64.0,27.0,25,29.70,10.0,SE,15.0,-,N/A,,Clear,130,2012-03-01 18:54:00
1:54 PM,68.0,25.0,20,29.65,10.0,SSE,13.8,33.4,N/A,,Clear,150,2012-03-01 19:54:00
2:54 PM,72.0,23.0,16,29.61,10.0,South,21.9,26.5,N/A,,Clear,170,2012-03-01 20:54:00
3:54 PM,72.0,24.1,17,29.59,10.0,South,19.6,26.5,N/A,,Clear,190,2012-03-01 21:54:00
4:54 PM,71.1,26.1,19,29.56,10.0,South,15.0,-,N/A,,Clear,190,2012-03-01 22:54:00
5:54 PM,64.9,27.0,24,29.56,10.0,SSE,11.5,-,N/A,,Clear,160,2012-03-01 23:54:00
6:54 PM,61.0,27.0,27,29.57,10.0,SSE,10.4,-,N/A,,Clear,160,2012-03-02 00:54:00
7:54 PM,60.1,27.0,28,29.57,10.0,SSE,9.2,-,N/A,,Clear,150,2012-03-02 01:54:00
8:54 PM,59.0,28.9,32,29.56,10.0,SSE,10.4,-,N/A,,Clear,150,2012-03-02 02:54:00
9:54 PM,57.9,28.9,33,29.55,10.0,SSE,11.5,-,N/A,,Clear,160,2012-03-02 03:54:00
10:54 PM,55.9,30.0,37,29.55,10.0,South,9.2,-,N/A,,Clear,170,2012-03-02 04:54:00
11:54 PM,52.0,30.0,43,29.53,10.0,South,6.9,-,N/A,,Clear,170,2012-03-02 05:54:00